Richmond, VA

8:54 AM EDT on September 22, 2019 (GMT -0400)
Richmond International

Weather History for KRIC - May, 2019

Change the Weather History Date:

Thursday, May 23, 2019

  Actual Average Record
Temperature  
Mean Temperature 72 °F 68 °F  
Max Temperature 87 °F 80 °F 99 °F (1941)
Min Temperature 58 °F 57 °F 40 °F (1936)
Degree Days  
Heating Degree Days 0 2  
Month to date heating degree days 18 66  
Since 1 July heating degree days 3492 3758  
Cooling Degree Days 8 5  
Month to date cooling degree days 149 71  
Year to date cooling degree days 213 113  
Growing Degree Days 22 (Base 50)    
Moisture  
Dew Point 63 °F    
Average Humidity 69    
Maximum Humidity 79    
Minimum Humidity 58    
Precipitation  
Precipitation 0.00 in 0.14 in 1.03 in (1951)
Month to date precipitation 3.63 2.74  
Year to date precipitation 16.88 15.85  
Snow  
Snow 0.00 in 0.00 in 0.00 in (2002)
Month to date snowfall 0.0 0.0  
Since 1 July snowfall 13.1 10.3  
Snow Depth 0.00 in    
Sea Level Pressure  
Sea Level Pressure 30.15 in    
Wind  
Wind Speed 8 mph ()    
Max Wind Speed 22 mph    
Max Gust Speed 26 mph    
Visibility 10.0 miles    
Events      
T = Trace of Precipitation, MM = Missing Value Source: Averaged Metar Reports

Daily Weather History Graph

Daily Weather History Graph

Search for Another Location

Airport or City:

Astronomy

May. 23, 2019 Rise Set
Actual Time 5:54 AM EDT 8:18 PM EDT
Civil Twilight 5:24 AM EDT 8:48 PM EDT
Nautical Twilight 4:47 AM EDT 9:25 PM EDT
Astronomical Twilight 4:07 AM EDT 10:05 PM EDT
Moon No Moon Rise 9:56 AM EDT (5/23)
Length of Visible Light 15h 23m
Length of Day
14h 23m
Waning Gibbous, 77% of the Moon is Illuminated
May 23
Waning Gibbous
May 26
Last Quarter
Jun 3
New
Jun 10
First Quarter
Jun 17
Full

Hourly Weather History & Observations

Time (EDT) Temp. Heat Index Dew Point Humidity Pressure Visibility Wind Dir Wind Speed Gust Speed Precip Events Conditions
12:54 AM 61.0 °F - 51.1 °F 70% 30.27 in 10.0 mi SSE 4.6 mph - N/A   Scattered Clouds
1:54 AM 60.1 °F - 52.0 °F 75% 30.26 in 10.0 mi SE 4.6 mph - N/A   Clear
2:54 AM 60.1 °F - 52.0 °F 75% 30.24 in 10.0 mi SSE 5.8 mph - N/A   Mostly Cloudy
3:54 AM 59.0 °F - 52.0 °F 78% 30.23 in 10.0 mi South 4.6 mph - N/A   Partly Cloudy
4:54 AM 61.0 °F - 53.1 °F 75% 30.23 in 10.0 mi South 6.9 mph - N/A   Mostly Cloudy
5:54 AM 61.0 °F - 52.0 °F 72% 30.23 in 10.0 mi South 6.9 mph - N/A   Mostly Cloudy
6:54 AM 62.1 °F - 53.1 °F 72% 30.23 in 10.0 mi South 8.1 mph - N/A   Partly Cloudy
7:54 AM 66.0 °F - 55.9 °F 70% 30.23 in 10.0 mi South 11.5 mph - N/A   Partly Cloudy
8:54 AM 70.0 °F - 57.9 °F 65% 30.24 in 10.0 mi SSW 12.7 mph - N/A   Scattered Clouds
9:54 AM 75.0 °F - 61.0 °F 62% 30.22 in 10.0 mi SSW 12.7 mph - N/A   Mostly Cloudy
10:54 AM 79.0 °F - 64.0 °F 60% 30.20 in 10.0 mi SSW 15.0 mph - N/A   Mostly Cloudy
11:54 AM 82.0 °F 84.1 °F 66.0 °F 58% 30.19 in 10.0 mi SSW 12.7 mph - N/A   Mostly Cloudy
12:54 PM 82.9 °F 85.8 °F 68.0 °F 60% 30.16 in 10.0 mi WSW 17.3 mph - N/A   Mostly Cloudy
1:54 PM 82.9 °F 86.5 °F 69.1 °F 63% 30.13 in 10.0 mi SSW 13.8 mph - N/A   Mostly Cloudy
2:54 PM 84.9 °F 89.4 °F 70.0 °F 61% 30.11 in 10.0 mi SSW 19.6 mph - N/A   Mostly Cloudy
3:54 PM 86.0 °F 91.5 °F 71.1 °F 61% 30.07 in 10.0 mi SW 12.7 mph 24.2 mph N/A   Mostly Cloudy
4:54 PM 84.9 °F 89.4 °F 70.0 °F 61% 30.05 in 10.0 mi SSW 15.0 mph - N/A   Mostly Cloudy
5:54 PM 82.0 °F 86.3 °F 71.1 °F 69% 30.05 in 10.0 mi SSW 11.5 mph - N/A   Mostly Cloudy
6:54 PM 82.0 °F 86.7 °F 72.0 °F 71% 30.04 in 10.0 mi SSW 10.4 mph - N/A   Mostly Cloudy
7:54 PM 82.0 °F 86.7 °F 72.0 °F 71% 30.03 in 10.0 mi SSW 9.2 mph - N/A   Mostly Cloudy
8:54 PM 81.0 °F 84.9 °F 71.1 °F 72% 30.04 in 10.0 mi SW 13.8 mph - N/A   Mostly Cloudy
9:54 PM 80.1 °F 83.2 °F 70.0 °F 71% 30.03 in 10.0 mi SW 10.4 mph - N/A   Mostly Cloudy
10:54 PM 79.0 °F - 71.1 °F 77% 30.03 in 10.0 mi SW 13.8 mph - N/A   Mostly Cloudy
11:54 PM 79.0 °F - 71.1 °F 77% 30.01 in 10.0 mi SW 12.7 mph - N/A   Mostly Cloudy